When you browse on this site, cookies collect data to enhance your experience and personalize the content and advertising you see.
Visit our Privacy Policy to learn more. By continuing to use the site, you agree to this use of cookies and data.

Hourly Weather Orange Walk

Today, 18 September, Friday

Time Temperature Precipitation Wind Pressure Humidity
00:00 +27°C° 0 mm 1 mps 756 mmHg 95%
01:00 +25°C° 0 mm 0 mps 755 mmHg 95%
02:00 +25°C° 0 mm 0 mps 755 mmHg 95%
03:00 +25°C° 0 mm 0 mps 755 mmHg 95%
04:00 +25°C° 0 mm 0 mps 755 mmHg 95%
05:00 +25°C° 0 mm 0 mps 755 mmHg 96%
06:00 +25°C° 0 mm 0 mps 755 mmHg 96%
07:00 +27°C° 0.1 mm 0 mps 756 mmHg 88%
08:00 +29°C° 0.1 mm 0 mps 756 mmHg 80%
09:00 +31°C° 0.1 mm 0 mps 756 mmHg 72%
10:00 +33°C° 1.2 mm 1 mps 756 mmHg 72%
11:00 +33°C° 1.2 mm 1 mps 756 mmHg 73%
12:00 +34°C° 1.2 mm 2 mps 756 mmHg 73%
13:00 +34°C° 0.8 mm 2 mps 755 mmHg 73%
14:00 +34°C° 0.8 mm 2 mps 754 mmHg 72%
15:00 +34°C° 0.8 mm 2 mps 753 mmHg 71%
16:00 +32°C° 0.1 mm 2 mps 753 mmHg 76%
17:00 +30°C° 0.1 mm 2 mps 754 mmHg 80%
18:00 +29°C° 0.1 mm 2 mps 754 mmHg 85%
19:00 +29°C° 0.2 mm 2 mps 755 mmHg 88%
20:00 +28°C° 0.2 mm 1 mps 755 mmHg 91%
21:00 +27°C° 0.2 mm 1 mps 756 mmHg 93%
22:00 +27°C° 1.4 mm 1 mps 756 mmHg 95%
23:00 +27°C° 1.4 mm 1 mps 756 mmHg 96%

Tomorrow, 19 September, Saturday

Time Temperature Precipitation Wind Pressure Humidity
00:00 +24°C° 1.4 mm 0 mps 756 mmHg 97%
01:00 +26°C° 0.5 mm 1 mps 755 mmHg 97%
02:00 +26°C° 0.5 mm 1 mps 755 mmHg 97%
03:00 +26°C° 0.5 mm 1 mps 755 mmHg 97%
04:00 +26°C° 0 mm 1 mps 755 mmHg 97%
05:00 +26°C° 0 mm 1 mps 755 mmHg 97%
06:00 +26°C° 0 mm 1 mps 755 mmHg 97%
07:00 +27°C° 0 mm 1 mps 756 mmHg 92%
08:00 +28°C° 0 mm 1 mps 756 mmHg 87%
09:00 +30°C° 0 mm 1 mps 756 mmHg 82%
10:00 +32°C° 0.1 mm 1 mps 756 mmHg 73%
11:00 +34°C° 0.1 mm 1 mps 756 mmHg 64%
12:00 +33°C° 0.1 mm 0 mps 755 mmHg 56%
13:00 +35°C° 0.2 mm 1 mps 755 mmHg 58%
14:00 +34°C° 0.2 mm 1 mps 754 mmHg 60%
15:00 +34°C° 0.2 mm 1 mps 753 mmHg 63%
16:00 +32°C° 0.5 mm 1 mps 754 mmHg 70%
17:00 +31°C° 0.5 mm 2 mps 754 mmHg 77%
18:00 +29°C° 0.5 mm 2 mps 754 mmHg 84%
19:00 +28°C° 0.1 mm 1 mps 755 mmHg 86%
20:00 +28°C° 0.1 mm 1 mps 755 mmHg 88%
21:00 +27°C° 0.1 mm 1 mps 756 mmHg 91%
22:00 +27°C° 0.6 mm 1 mps 756 mmHg 93%
23:00 +27°C° 0.6 mm 1 mps 756 mmHg 95%

Day after tomorrow, 20 September, Sunday

Time Temperature Precipitation Wind Pressure Humidity
00:00 +26°C° 0.6 mm 1 mps 756 mmHg 97%
01:00 +26°C° 0.2 mm 1 mps 755 mmHg 97%
02:00 +24°C° 0.2 mm 0 mps 755 mmHg 97%
03:00 +24°C° 0.2 mm 0 mps 755 mmHg 97%
04:00 +24°C° 0 mm 0 mps 755 mmHg 97%
05:00 +24°C° 0 mm 0 mps 755 mmHg 98%
06:00 +24°C° 0 mm 0 mps 756 mmHg 98%
07:00 +25°C° 0.1 mm 0 mps 756 mmHg 92%
08:00 +27°C° 0.1 mm 0 mps 757 mmHg 86%
09:00 +31°C° 0.1 mm 1 mps 757 mmHg 80%
10:00 +32°C° 0.4 mm 1 mps 757 mmHg 77%
11:00 +33°C° 0.4 mm 1 mps 756 mmHg 73%
12:00 +33°C° 0.4 mm 1 mps 756 mmHg 69%
13:00 +33°C° 1.4 mm 1 mps 755 mmHg 74%
14:00 +32°C° 1.4 mm 2 mps 755 mmHg 78%
15:00 +31°C° 1.4 mm 2 mps 754 mmHg 83%
16:00 +30°C° 0.5 mm 2 mps 755 mmHg 86%
17:00 +29°C° 0.5 mm 2 mps 755 mmHg 90%
18:00 +28°C° 0.5 mm 2 mps 756 mmHg 93%
19:00 +28°C° 0.3 mm 1 mps 756 mmHg 94%
20:00 +27°C° 0.3 mm 1 mps 757 mmHg 94%
21:00 +27°C° 0.3 mm 1 mps 757 mmHg 95%
22:00 +27°C° 0.1 mm 1 mps 757 mmHg 96%
23:00 +24°C° 0.1 mm 0 mps 757 mmHg 96%

21 September, Monday

Time Temperature Precipitation Wind Pressure Humidity
00:00 +24°C° 0.1 mm 0 mps 757 mmHg 97%
01:00 +24°C° 0.1 mm 0 mps 757 mmHg 97%
02:00 +24°C° 0.1 mm 0 mps 756 mmHg 97%
03:00 +24°C° 0.1 mm 0 mps 756 mmHg 98%
04:00 +24°C° 0.1 mm 0 mps 756 mmHg 97%
05:00 +24°C° 0.1 mm 0 mps 757 mmHg 97%
06:00 +24°C° 0.1 mm 0 mps 757 mmHg 97%
07:00 +25°C° 0.2 mm 0 mps 757 mmHg 91%
08:00 +27°C° 0.2 mm 0 mps 757 mmHg 86%
09:00 +31°C° 0.2 mm 1 mps 758 mmHg 80%
10:00 +31°C° 0.5 mm 1 mps 757 mmHg 76%
11:00 +32°C° 0.5 mm 1 mps 757 mmHg 72%
12:00 +33°C° 0.5 mm 1 mps 757 mmHg 68%
13:00 +33°C° 0.6 mm 1 mps 756 mmHg 66%
14:00 +33°C° 0.6 mm 1 mps 755 mmHg 65%
15:00 +33°C° 0.6 mm 1 mps 755 mmHg 63%
16:00 +32°C° 0 mm 1 mps 755 mmHg 68%
17:00 +30°C° 0 mm 1 mps 755 mmHg 73%
18:00 +28°C° 0 mm 1 mps 755 mmHg 78%
19:00 +28°C° 0 mm 1 mps 756 mmHg 80%
20:00 +27°C° 0 mm 1 mps 756 mmHg 82%
21:00 +26°C° 0 mm 1 mps 757 mmHg 84%
22:00 +26°C° 0 mm 1 mps 757 mmHg 86%
23:00 +26°C° 0 mm 1 mps 757 mmHg 88%

22 September, Tuesday

Time Temperature Precipitation Wind Pressure Humidity
00:00 +25°C° 0 mm 1 mps 757 mmHg 89%
01:00 +25°C° 0.1 mm 1 mps 756 mmHg 91%
02:00 +25°C° 0.1 mm 1 mps 756 mmHg 92%
03:00 +25°C° 0.1 mm 1 mps 756 mmHg 93%
04:00 +24°C° 0 mm 1 mps 756 mmHg 93%
05:00 +22°C° 0 mm 0 mps 756 mmHg 93%
06:00 +22°C° 0 mm 0 mps 757 mmHg 93%
07:00 +25°C° 0 mm 0 mps 757 mmHg 85%
08:00 +27°C° 0 mm 0 mps 757 mmHg 77%
09:00 +31°C° 0 mm 1 mps 758 mmHg 69%
10:00 +32°C° 0 mm 1 mps 757 mmHg 64%
11:00 +34°C° 0 mm 1 mps 757 mmHg 60%
12:00 +35°C° 0 mm 1 mps 756 mmHg 55%
13:00 +34°C° 0.1 mm 1 mps 756 mmHg 58%
14:00 +34°C° 0.1 mm 1 mps 755 mmHg 60%
15:00 +33°C° 0.1 mm 1 mps 754 mmHg 63%
16:00 +32°C° 0.1 mm 1 mps 754 mmHg 70%
17:00 +30°C° 0.1 mm 2 mps 754 mmHg 78%
18:00 +28°C° 0.1 mm 2 mps 755 mmHg 85%
19:00 +28°C° 0 mm 1 mps 755 mmHg 87%
20:00 +27°C° 0 mm 1 mps 756 mmHg 88%
21:00 +26°C° 0 mm 1 mps 756 mmHg 90%
22:00 +26°C° 0 mm 1 mps 756 mmHg 91%
23:00 +26°C° 0 mm 1 mps 756 mmHg 92%

23 September, Wednesday

Time Temperature Precipitation Wind Pressure Humidity
00:00 +26°C° 0 mm 1 mps 756 mmHg 93%
01:00 +26°C° 0 mm 1 mps 756 mmHg 94%
02:00 +25°C° 0 mm 1 mps 756 mmHg 95%
03:00 +25°C° 0 mm 1 mps 755 mmHg 95%
04:00 +23°C° 0 mm 0 mps 755 mmHg 95%
05:00 +23°C° 0 mm 0 mps 756 mmHg 95%
06:00 +23°C° 0 mm 0 mps 756 mmHg 95%
07:00 +25°C° 0 mm 0 mps 756 mmHg 86%
08:00 +28°C° 0 mm 0 mps 756 mmHg 77%
09:00 +30°C° 0 mm 0 mps 757 mmHg 68%
10:00 +33°C° 0 mm 1 mps 756 mmHg 64%
11:00 +34°C° 0 mm 1 mps 756 mmHg 60%
12:00 +35°C° 0 mm 1 mps 755 mmHg 56%
13:00 +34°C° 0.1 mm 1 mps 755 mmHg 59%
14:00 +34°C° 0.1 mm 1 mps 754 mmHg 61%
15:00 +34°C° 0.1 mm 1 mps 754 mmHg 63%
16:00 +32°C° 0.1 mm 2 mps 754 mmHg 70%
17:00 +30°C° 0.1 mm 2 mps 754 mmHg 78%
18:00 +28°C° 0.1 mm 2 mps 754 mmHg 85%
19:00 +28°C° 0 mm 2 mps 755 mmHg 87%
20:00 +27°C° 0 mm 1 mps 755 mmHg 89%
21:00 +26°C° 0 mm 1 mps 756 mmHg 92%
22:00 +26°C° 0 mm 1 mps 756 mmHg 92%
23:00 +24°C° 0 mm 0 mps 756 mmHg 93%
Show more